TimePDT,TemperatureF,Dew PointF,Humidity,Sea Level PressureIn,VisibilityMPH,Wind Direction,Wind SpeedMPH,Gust SpeedMPH,PrecipitationIn,Events,Conditions,WindDirDegrees,DateUTC
12:53 AM,46.9,39.0,74,29.91,10.0,Calm,Calm,-,0.00,,Overcast,0,2013-03-27 07:53:00
1:53 AM,48.0,37.0,66,29.91,10.0,Calm,Calm,-,N/A,,Overcast,0,2013-03-27 08:53:00
2:53 AM,46.0,39.9,79,29.91,10.0,Calm,Calm,-,N/A,,Overcast,0,2013-03-27 09:53:00
3:53 AM,44.1,41.0,89,29.91,10.0,NW,3.5,-,N/A,,Overcast,310,2013-03-27 10:53:00
4:53 AM,44.1,41.0,89,29.92,10.0,East,6.9,-,0.01,Rain,Light Rain,100,2013-03-27 11:53:00
5:53 AM,43.0,41.0,93,29.92,6.0,NNW,3.5,-,0.02,Rain,Light Rain,340,2013-03-27 12:53:00
6:53 AM,43.0,41.0,93,29.94,6.0,South,4.6,-,0.03,,Overcast,180,2013-03-27 13:53:00
7:53 AM,43.0,42.1,97,29.94,7.0,ENE,4.6,-,0.01,Rain,Light Rain,60,2013-03-27 14:53:00
8:53 AM,46.0,42.1,86,29.94,10.0,NE,4.6,-,0.00,,Overcast,40,2013-03-27 15:53:00
9:53 AM,48.0,44.1,86,29.94,10.0,West,3.5,-,N/A,,Scattered Clouds,280,2013-03-27 16:53:00
10:53 AM,48.9,43.0,80,29.95,10.0,Calm,Calm,-,N/A,,Overcast,0,2013-03-27 17:53:00
11:53 AM,53.1,43.0,69,29.94,10.0,Calm,Calm,-,N/A,,Mostly Cloudy,0,2013-03-27 18:53:00
12:53 PM,57.0,44.1,62,29.93,10.0,Variable,3.5,-,N/A,,Partly Cloudy,0,2013-03-27 19:53:00
1:53 PM,59.0,43.0,55,29.91,10.0,Variable,3.5,-,N/A,,Mostly Cloudy,0,2013-03-27 20:53:00
2:53 PM,61.0,41.0,48,29.89,10.0,NNW,5.8,-,N/A,,Partly Cloudy,330,2013-03-27 21:53:00
3:53 PM,63.0,39.0,41,29.87,10.0,West,3.5,-,N/A,,Clear,280,2013-03-27 22:53:00
4:53 PM,61.0,42.1,50,29.87,10.0,North,6.9,-,N/A,,Mostly Cloudy,10,2013-03-27 23:53:00
5:53 PM,60.1,45.0,57,29.88,10.0,NNE,11.5,-,0.00,,Mostly Cloudy,30,2013-03-28 00:53:00
6:53 PM,55.0,46.0,72,29.91,10.0,ESE,10.4,-,N/A,,Mostly Cloudy,120,2013-03-28 01:53:00
7:53 PM,50.0,44.1,80,29.92,10.0,East,6.9,-,N/A,,Partly Cloudy,100,2013-03-28 02:53:00
8:53 PM,46.0,42.1,86,29.94,10.0,NE,10.4,-,N/A,,Partly Cloudy,50,2013-03-28 03:53:00
9:53 PM,48.9,42.1,77,29.94,10.0,Calm,Calm,-,N/A,,Overcast,0,2013-03-28 04:53:00
10:53 PM,46.9,43.0,86,29.94,10.0,ESE,8.1,-,0.00,,Mostly Cloudy,110,2013-03-28 05:53:00
11:53 PM,45.0,43.0,93,29.96,10.0,WSW,3.5,-,N/A,,Partly Cloudy,250,2013-03-28 06:53:00